Location: Keppel Henge
(44.7900°N, 80.9447°W)
Time: 05:26:47
(UTC-04:00)

N. Korean satellite - Visible Passes

Search period start: 22 October 2018 00:00
Search period end: 01 November 2018 00:00
Orbit: 459 x 510 km, 97.2° (Epoch: 21 October)

Date Brightness Start Highest point End Pass type
(mag) Time Alt. Az. Time Alt. Az. Time Alt. Az.
22 Oct 10.4 06:40:52 10° ENE 06:42:14 12° E 06:43:35 10° ESE visible
23 Oct 10.0 20:00:08 10° SW 20:02:26 15° W 20:04:44 10° NW visible
24 Oct 9.0 19:34:33 10° SSW 19:37:50 29° W 19:41:08 10° NW visible
25 Oct 9.8 06:59:51 10° NE 07:02:33 20° E 07:05:13 10° SE visible
25 Oct 7.4 19:09:38 10° S 19:13:20 57° W 19:17:01 10° NNW visible
26 Oct 10.6 06:37:22 10° E 06:37:54 10° E 06:38:25 10° E visible
27 Oct 9.9 19:55:36 10° SW 19:58:06 17° W 20:00:38 10° NW visible
28 Oct 8.6 07:19:29 10° NNE 07:22:48 34° E 07:26:02 10° SSE visible
28 Oct 8.7 19:30:09 10° SSW 19:33:31 32° W 19:36:54 10° NNW visible
29 Oct 9.9 06:55:43 10° NE 06:58:12 18° E 07:00:39 10° SE visible
29 Oct 7.2 19:05:19 10° S 19:09:00 64° WSW 19:12:44 10° NNW visible
30 Oct 6.7 18:40:54 10° SSE 18:44:35 63° ENE 18:48:17 10° N visible
31 Oct 9.7 19:51:03 10° SW 19:53:45 19° W 19:56:28 10° NW visible
